Volver al catálogo

CZ-6A DEB

ActivoSSO
NORAD 54952·DEBRIS·🇨🇳 China

Lanzado Nov 11, 2022 desde Taiyuan Satellite Launch Center

Loading…

Próximos Pases (próximas 24 horas)

TLE

ActualizadoSource: Space-Track

Época: Sep 14, 2026, 05:19 UTC

1 54952U 22151SR  26257.22156346  .00000333  00000-0  26119-3 0  9998
2 54952  98.9566 233.4684 0112789 187.5831 172.3630 13.95788926195220

Sigue CZ-6A DEB en tiempo real con AllMySat

Download on the App Store